TimeCDT,TemperatureF,Dew PointF,Humidity,Sea Level PressureIn,VisibilityMPH,Wind Direction,Wind SpeedMPH,Gust SpeedMPH,PrecipitationIn,Events,Conditions,WindDirDegrees,DateUTC
12:01 AM,17.6,12.2,79,29.57,1.5,Variable,5.8,18.4,0.00,Snow,Light Snow,0,2013-03-19 05:01:00
1:40 AM,12.2,6.8,79,29.60,1.8,Variable,6.9,17.3,0.00,Snow,Light Snow,0,2013-03-19 06:40:00
1:53 AM,12.9,7.0,77,29.67,2.0,West,8.1,20.7,0.00,Snow,Light Snow,270,2013-03-19 06:53:00
2:20 AM,12.2,6.8,79,29.62,4.0,West,8.1,-,0.00,Snow,Light Snow,270,2013-03-19 07:20:00
2:53 AM,12.0,5.0,73,29.69,4.0,Variable,4.6,17.3,0.00,Snow,Light Snow,0,2013-03-19 07:53:00
3:18 AM,12.2,6.8,79,29.63,2.0,West,8.1,-,0.00,Snow,Light Snow,270,2013-03-19 08:18:00
3:25 AM,12.2,6.8,79,29.64,1.8,West,8.1,-,0.00,Snow,Light Snow,270,2013-03-19 08:25:00
3:34 AM,10.4,6.8,85,29.64,2.0,West,10.4,17.3,0.00,Snow,Light Snow,260,2013-03-19 08:34:00
3:53 AM,10.9,5.0,77,29.71,2.0,Variable,6.9,18.4,0.00,Snow,Light Snow,0,2013-03-19 08:53:00
4:15 AM,10.4,5.0,79,29.65,3.0,Variable,6.9,-,0.00,Snow,Light Snow,0,2013-03-19 09:15:00
4:53 AM,10.9,3.9,73,29.73,4.0,Variable,6.9,20.7,0.00,Snow,Light Snow,0,2013-03-19 09:53:00
5:53 AM,10.0,3.9,76,29.76,4.0,West,9.2,-,0.00,Snow,Light Snow,270,2013-03-19 10:53:00
6:53 AM,9.0,3.0,77,29.80,10.0,Variable,6.9,-,0.00,,Overcast,0,2013-03-19 11:53:00
7:53 AM,8.1,1.9,76,29.83,10.0,Variable,3.5,-,0.00,,Mostly Cloudy,0,2013-03-19 12:53:00
8:10 AM,8.6,1.4,73,29.76,10.0,West,9.2,-,N/A,,Mostly Cloudy,270,2013-03-19 13:10:00
8:53 AM,10.0,1.9,70,29.85,10.0,WNW,11.5,19.6,0.00,,Overcast,290,2013-03-19 13:53:00
9:53 AM,12.0,3.0,67,29.88,10.0,WNW,8.1,21.9,0.00,,Mostly Cloudy,290,2013-03-19 14:53:00
10:07 AM,12.2,3.2,67,29.81,10.0,WNW,9.2,23.0,0.00,,Scattered Clouds,290,2013-03-19 15:07:00
10:53 AM,16.0,3.9,59,29.89,10.0,WNW,9.2,20.7,0.00,,Clear,290,2013-03-19 15:53:00
11:04 AM,17.6,3.2,53,29.82,1.2,WNW,9.2,21.9,0.00,,Clear,300,2013-03-19 16:04:00
11:53 AM,19.9,3.9,50,29.90,10.0,WNW,10.4,19.6,0.00,,Clear,290,2013-03-19 16:53:00
12:17 PM,21.2,3.2,46,29.83,2.0,WNW,9.2,21.9,0.00,,Haze,290,2013-03-19 17:17:00
12:26 PM,21.2,3.2,46,29.84,10.0,WNW,10.4,25.3,0.00,Snow,Light Snow,300,2013-03-19 17:26:00
12:53 PM,21.9,3.9,46,29.91,10.0,West,9.2,25.3,0.00,,Clear,280,2013-03-19 17:53:00
1:53 PM,25.0,3.0,39,29.92,10.0,West,10.4,25.3,0.00,,Clear,280,2013-03-19 18:53:00
2:53 PM,25.0,3.9,41,29.93,10.0,Variable,6.9,21.9,0.00,,Clear,0,2013-03-19 19:53:00
3:53 PM,26.1,1.9,35,29.95,10.0,West,9.2,20.7,0.00,,Clear,280,2013-03-19 20:53:00
4:53 PM,26.1,1.9,35,29.97,10.0,West,9.2,18.4,N/A,,Clear,280,2013-03-19 21:53:00
5:53 PM,24.1,1.0,37,29.99,10.0,Variable,6.9,17.3,N/A,,Clear,0,2013-03-19 22:53:00
6:53 PM,23.0,1.0,39,30.01,10.0,Variable,5.8,17.3,N/A,,Partly Cloudy,0,2013-03-19 23:53:00
7:53 PM,19.9,-0.0,42,30.04,10.0,Variable,5.8,-,N/A,,Clear,0,2013-03-20 00:53:00
8:53 PM,18.0,-0.0,45,30.06,10.0,Variable,6.9,-,N/A,,Clear,0,2013-03-20 01:53:00
9:53 PM,15.1,-2.9,45,30.07,10.0,West,8.1,19.6,N/A,,Clear,270,2013-03-20 02:53:00
10:53 PM,12.9,-4.0,47,30.08,10.0,Variable,5.8,19.6,N/A,,Clear,0,2013-03-20 03:53:00
11:53 PM,10.9,-2.9,54,30.09,10.0,Variable,3.5,-,N/A,,Clear,0,2013-03-20 04:53:00